Temp
21 21 20 20 20 20 20 19 19 18 19 18 18 19 19 18 17 17 17 17 17 17 17 17 17 17 17 17 16 16 16 16 16 16 16 16 16 16 16 16 15 15
20 21 20 20 20 20 20 20 19 19 19 20 20 20 19 18 18 17 17 17 17 17 17 17 17 17 17 17 17 16 16 16 16 16 16 16 16 16 16 16 15 15
20 21 20 20 20 20 20 20 20 19 20 20 20 20 19 18 18 18 17 17 17 17 17 17 17 17 17 17 17 16 16 16 16 16 16 16 16 16 16 16 15 15
20 20 20 20 20 20 21 21 20 20 19 20 20 21 20 19 18 18 17 17 18 18 17 17 17 17 17 16 16 16 16 16 16 16 16 16 16 16 16 16 15 15
20 20 20 20 20 20 20 20 20 20 20 20 20 21 20 20 18 18 17 17 18 18 17 17 17 17 16 16 16 16 16 16 16 16 16 16 16 16 16 16 16 15
20 20 20 20 20 19 19 20 20 20 20 20 20 21 21 20 19 18 18 18 18 18 18 17 17 17 16 16 16 16 15 15 15 16 16 16 16 16 16 16 16 15
20 20 20 20 20 19 19 19 20 20 20 20 20 21 21 21 20 19 18 18 18 18 18 18 18 17 17 16 16 16 15 15 15 15 16 16 16 16 16 16 16 16
21 20 20 20 19 19 19 19 19 19 20 20 20 21 21 21 20 19 18 18 17 17 18 18 18 17 17 17 16 16 15 15 15 15 15 15 16 16 16 16 16 16
20 20 20 19 19 19 19 19 18 18 19 19 20 21 21 21 21 20 19 18 17 17 17 17 18 17 17 17 17 16 16 15 15 15 15 15 16 16 16 16 16 16
17 18 18 18 18 18 18 18 17 18 18 18 19 20 20 20 20 20 19 18 17 17 17 17 17 18 17 17 17 16 16 16 15 15 15 15 15 16 16 16 16 16
15 16 16 17 17 18 18 17 17 17 18 18 18 19 19 19 19 19 19 18 18 17 17 17 17 17 17 17 17 16 16 16 15 15 15 15 15 16 16 16 16 16
16 15 15 16 17 17 17 17 17 17 17 18 18 18 18 18 18 18 18 18 18 18 17 17 17 17 17 17 17 17 16 16 15 15 15 15 15 15 16 16 16 16
17 16 16 15 17 18 18 17 17 17 17 18 18 18 18 17 18 17 17 17 17 17 17 17 17 17 17 17 17 17 16 16 15 15 15 15 15 15 15 15 15 15
16 17 16 16 17 18 18 18 18 17 17 18 18 17 17 17 17 17 17 17 17 17 17 17 16 16 16 17 17 17 16 16 16 15 15 15 15 15 15 15 15 15
16 16 15 15 16 18 18 18 18 18 18 18 17 17 17 17 16 16 16 16 17 17 17 17 16 16 16 17 17 17 17 16 16 15 15 14 14 14 14 15 15 15
17 16 15 15 16 17 18 18 18 18 18 17 17 17 17 16 16 16 16 16 16 17 17 17 16 16 17 17 17 17 17 16 16 15 15 14 14 14 14 14 14 14
17 16 15 15 16 17 18 18 18 18 17 17 17 17 17 16 16 16 16 16 16 16 17 17 17 17 17 17 17 17 17 16 16 15 15 14 14 14 14 14 14 14
17 16 15 15 16 17 18 18 18 18 18 17 17 17 17 16 16 16 16 16 16 16 16 17 18 19 18 18 17 17 16 16 16 15 15 14 14 14 14 14 14 14
16 16 16 17 17 18 18 18 18 18 18 17 17 17 17 16 16 16 16 16 16 16 16 17 18 19 19 18 17 17 16 16 16 15 15 14 14 14 14 14 14 14
16 16 16 17 17 17 18 18 17 18 18 18 18 17 17 16 16 16 16 16 16 16 16 16 17 19 19 18 17 17 16 16 15 15 15 14 14 14 14 14 14 14
17 17 16 16 16 17 17 17 16 17 17 17 17 18 17 17 17 16 16 16 16 16 16 16 17 19 19 18 17 17 16 16 15 15 15 14 14 14 14 14 15 14
17 17 17 16 16 16 16 16 16 16 16 16 16 16 17 17 17 17 17 17 16 16 16 16 16 18 19 19 18 17 16 15 15 15 15 15 14 14 14 14 14 14
17 17 17 17 17 16 16 17 16 16 16 16 16 16 16 16 16 17 17 17 16 16 16 16 16 17 18 19 18 17 16 15 15 15 15 15 14 14 14 14 14 15
17 17 17 17 17 17 17 17 17 17 17 17 17 16 16 15 15 16 16 17 16 16 16 16 16 17 18 18 18 17 16 15 15 15 15 15 14 14 14 14 14 14
17 17 17 17 17 17 17 17 17 17 17 17 17 17 17 16 15 15 15 16 16 16 16 16 16 17 17 17 17 16 16 15 15 15 15 15 14 14 14 14 14 14
17 17 17 17 16 16 17 17 17 17 17 17 17 17 17 17 16 16 16 15 15 15 16 16 16 16 16 16 16 16 16 15 15 15 15 15 14 14 14 14 14 14
Height
1481 1482 1484 1486 1488 1490 1492 1494 1495 1497 1498 1500 1502 1503 1504 1506 1509 1512 1514 1516 1518 1519 1521 1523 1524 1526 1528 1529 1531 1532 1533 1534 1535 1536 1537 1538 1539 1540 1541 1542 1543 1544
1477 1478 1480 1482 1484 1486 1488 1490 1492 1493 1494 1496 1499 1500 1502 1504 1506 1509 1511 1512 1514 1515 1517 1519 1521 1523 1524 1526 1527 1528 1529 1530 1531 1533 1534 1535 1536 1537 1538 1539 1540 1541
1472 1474 1475 1477 1480 1482 1485 1487 1488 1489 1491 1493 1496 1498 1499 1501 1503 1505 1507 1509 1511 1512 1514 1516 1517 1519 1521 1522 1524 1525 1526 1527 1528 1529 1531 1532 1534 1535 1535 1537 1538 1539
1467 1469 1471 1473 1476 1478 1481 1483 1484 1486 1488 1490 1492 1494 1496 1498 1500 1502 1504 1506 1507 1509 1510 1512 1514 1516 1517 1519 1520 1521 1522 1523 1525 1527 1528 1529 1530 1531 1533 1534 1535 1536
1462 1465 1467 1469 1472 1475 1477 1479 1480 1482 1484 1486 1488 1490 1493 1495 1496 1498 1500 1502 1504 1505 1506 1508 1510 1512 1514 1515 1517 1518 1519 1520 1522 1524 1524 1525 1527 1528 1529 1531 1531 1532
1457 1460 1462 1465 1468 1470 1472 1474 1476 1478 1480 1482 1484 1486 1488 1490 1492 1494 1496 1499 1500 1502 1503 1504 1506 1508 1510 1512 1513 1514 1515 1516 1518 1520 1521 1521 1523 1525 1526 1527 1528 1529
1451 1454 1457 1460 1463 1465 1467 1469 1472 1474 1476 1479 1481 1482 1484 1486 1488 1490 1492 1495 1497 1498 1499 1500 1502 1503 1505 1507 1509 1510 1511 1512 1514 1516 1517 1518 1520 1521 1523 1524 1525 1525
1446 1449 1452 1454 1457 1460 1462 1464 1467 1470 1472 1475 1477 1478 1480 1481 1484 1486 1488 1491 1493 1495 1496 1497 1498 1500 1501 1503 1504 1505 1507 1508 1510 1511 1512 1514 1516 1517 1519 1520 1521 1522
1444 1445 1447 1450 1452 1454 1457 1459 1463 1466 1469 1471 1473 1474 1476 1477 1479 1482 1484 1487 1489 1491 1493 1494 1495 1496 1497 1499 1500 1501 1502 1504 1505 1507 1508 1510 1511 1512 1515 1516 1517 1518
1444 1443 1444 1446 1447 1450 1452 1455 1458 1462 1465 1467 1469 1471 1472 1473 1475 1478 1480 1483 1485 1487 1489 1490 1491 1492 1493 1494 1496 1497 1498 1499 1501 1502 1504 1505 1506 1508 1511 1513 1514 1515
1444 1444 1443 1443 1444 1446 1448 1451 1455 1457 1461 1463 1465 1466 1467 1469 1471 1473 1476 1478 1480 1482 1484 1485 1487 1488 1489 1490 1492 1493 1495 1496 1497 1498 1500 1501 1502 1504 1507 1509 1510 1511
1442 1444 1443 1441 1442 1444 1446 1448 1451 1453 1456 1458 1460 1461 1463 1465 1467 1469 1471 1473 1475 1477 1479 1480 1482 1484 1485 1486 1488 1490 1491 1492 1493 1494 1495 1497 1498 1500 1502 1505 1506 1508
1439 1443 1444 1442 1441 1442 1443 1445 1447 1450 1452 1453 1455 1456 1458 1460 1462 1464 1466 1468 1470 1473 1474 1476 1479 1481 1482 1483 1484 1486 1487 1488 1489 1490 1491 1493 1494 1496 1498 1501 1502 1504
1437 1440 1442 1441 1440 1439 1441 1442 1444 1446 1447 1449 1450 1452 1453 1455 1457 1459 1461 1463 1465 1468 1470 1472 1474 1477 1479 1479 1480 1481 1482 1483 1484 1485 1486 1488 1490 1492 1494 1496 1498 1500
1434 1436 1438 1438 1437 1436 1437 1439 1440 1442 1443 1445 1446 1447 1449 1451 1453 1455 1457 1458 1460 1462 1465 1467 1469 1471 1473 1475 1476 1476 1478 1479 1480 1481 1482 1484 1486 1488 1490 1492 1494 1496
1432 1435 1435 1434 1433 1432 1434 1435 1437 1438 1439 1440 1442 1443 1444 1446 1449 1451 1453 1454 1456 1457 1459 1461 1463 1465 1467 1469 1471 1472 1474 1475 1476 1477 1478 1480 1482 1484 1486 1488 1490 1492
1427 1430 1429 1428 1427 1428 1430 1432 1433 1434 1435 1436 1437 1439 1440 1442 1444 1446 1448 1450 1451 1453 1454 1455 1456 1458 1461 1464 1466 1468 1470 1471 1472 1473 1474 1476 1478 1480 1482 1484 1486 1488
1422 1423 1423 1422 1423 1424 1426 1428 1429 1430 1431 1432 1433 1434 1436 1438 1440 1441 1443 1445 1447 1448 1449 1449 1450 1452 1455 1458 1461 1463 1466 1468 1469 1469 1470 1471 1473 1475 1478 1481 1482 1484
1419 1420 1420 1420 1421 1422 1423 1424 1425 1426 1427 1428 1429 1430 1432 1433 1435 1436 1438 1440 1441 1443 1443 1444 1445 1446 1449 1452 1455 1458 1461 1463 1465 1466 1467 1468 1469 1471 1474 1477 1479 1481
1416 1417 1417 1418 1418 1419 1420 1421 1421 1422 1423 1424 1425 1426 1427 1428 1429 1431 1432 1434 1435 1437 1438 1439 1440 1441 1443 1446 1449 1452 1456 1459 1461 1463 1463 1464 1466 1467 1470 1473 1476 1477
1412 1413 1413 1414 1415 1415 1416 1417 1418 1418 1419 1420 1421 1421 1422 1423 1424 1425 1426 1427 1429 1431 1433 1434 1434 1436 1438 1440 1443 1447 1451 1455 1457 1459 1460 1460 1462 1463 1466 1469 1472 1473
1408 1409 1410 1410 1411 1412 1412 1413 1414 1415 1416 1417 1418 1418 1418 1418 1418 1419 1420 1421 1423 1425 1427 1428 1429 1431 1433 1435 1438 1442 1446 1450 1453 1455 1456 1456 1457 1459 1461 1465 1468 1470
1404 1405 1406 1407 1407 1408 1409 1409 1410 1410 1411 1413 1415 1416 1417 1415 1414 1414 1414 1416 1417 1419 1420 1422 1424 1426 1428 1430 1433 1437 1441 1445 1448 1451 1452 1452 1453 1455 1457 1460 1463 1465
1399 1400 1401 1401 1402 1403 1404 1405 1406 1406 1406 1408 1409 1411 1413 1414 1413 1412 1411 1411 1411 1413 1415 1417 1420 1422 1424 1426 1429 1432 1436 1440 1443 1446 1448 1448 1449 1451 1452 1454 1457 1461
1394 1395 1395 1396 1397 1398 1399 1400 1401 1401 1402 1403 1403 1404 1406 1408 1409 1410 1410 1409 1409 1409 1411 1413 1416 1418 1421 1423 1425 1428 1431 1435 1439 1442 1443 1444 1445 1446 1448 1449 1452 1456
1390 1390 1391 1391 1392 1393 1395 1396 1397 1397 1397 1398 1398 1398 1399 1400 1402 1404 1405 1407 1408 1408 1408 1410 1412 1414 1417 1418 1421 1424 1427 1431 1435 1438 1439 1440 1441 1442 1444 1445 1447 1450
Wind_Speed
42 42 40 39 39 39 38 38 38 36 35 36 37 35 34 35 36 35 35 36 36 35 36 36 37 37 37 37 37 36 35 33 31 29 28 27 27 27 27 26 26 27
45 44 42 41 41 41 39 37 37 36 34 32 32 32 33 35 35 34 34 35 35 35 35 35 37 37 38 37 37 37 37 36 34 31 30 29 28 28 28 27 27 27
47 46 45 44 43 41 39 37 37 37 35 33 31 31 33 34 35 35 35 34 35 35 35 35 35 37 38 38 37 37 38 38 37 35 32 30 29 29 28 28 28 28
50 48 47 46 44 42 39 38 38 38 38 37 33 31 32 34 35 36 36 35 35 35 35 35 35 36 37 38 37 37 38 39 39 37 35 33 31 30 29 29 29 29
50 49 48 47 46 45 44 42 40 39 38 38 35 32 32 34 36 37 37 37 36 35 35 35 36 36 37 37 37 38 38 39 39 38 38 35 33 31 30 30 30 30
50 50 49 49 48 47 48 46 42 40 39 39 37 34 33 33 36 37 38 38 37 36 35 35 36 37 38 38 38 38 39 40 39 39 39 38 35 33 32 32 32 31
51 51 51 50 49 49 50 49 45 42 40 40 39 37 34 34 35 37 38 39 39 38 36 36 36 36 38 39 39 40 40 41 41 41 41 39 37 35 34 34 33 33
50 51 52 52 51 51 51 50 48 45 42 42 42 40 37 36 35 36 38 40 41 40 38 37 37 37 38 39 40 41 41 42 43 43 42 42 40 39 37 36 35 34
52 52 53 54 53 52 52 51 50 48 45 44 43 42 40 39 38 37 39 41 42 42 41 40 39 38 39 39 40 42 43 43 44 44 44 44 43 41 39 38 37 36
50 53 53 54 54 54 53 53 52 49 48 47 45 44 43 42 41 40 40 42 44 44 43 43 41 39 40 41 41 42 43 44 44 45 45 46 45 44 41 40 39 38
45 49 52 53 53 53 52 51 50 49 49 48 47 46 45 45 44 43 43 44 45 45 45 45 43 41 40 41 42 43 44 45 46 46 46 47 47 46 43 41 40 40
47 45 48 51 51 51 50 50 49 49 49 49 48 47 47 47 47 46 45 46 46 45 45 46 45 43 42 41 42 43 44 45 47 47 47 47 48 47 45 43 42 41
48 47 48 51 50 48 48 48 49 49 49 48 47 47 47 48 48 48 47 47 46 46 46 47 47 46 44 42 42 43 44 46 47 48 48 47 47 47 46 45 43 42
46 49 54 54 50 46 45 47 47 48 48 47 46 47 47 48 48 49 48 48 47 46 47 48 48 48 46 44 44 44 45 46 48 49 49 48 47 46 46 46 45 43
43 48 54 56 52 46 44 44 45 46 46 45 45 46 47 48 49 49 49 49 48 47 48 49 49 49 48 47 46 45 45 47 48 49 49 49 47 45 45 45 45 45
36 45 51 54 51 45 42 42 43 43 44 44 45 45 46 47 48 49 50 51 50 49 49 50 51 51 51 49 48 47 46 46 48 49 50 49 48 46 45 45 45 45
27 39 49 51 46 41 40 41 41 42 43 44 44 44 45 47 48 49 51 52 52 52 51 51 52 52 51 51 50 49 47 47 48 49 50 49 48 47 46 45 45 45
27 36 44 45 41 40 41 41 42 43 44 45 46 45 45 46 48 49 51 52 53 54 54 53 51 51 52 51 51 51 49 48 48 49 50 50 49 48 47 46 45 45
20 28 34 38 39 40 41 41 43 45 45 46 47 47 47 48 49 50 51 53 54 55 56 55 52 50 52 53 52 52 51 49 48 49 50 50 49 48 47 46 45 45
10 14 20 26 32 36 40 42 44 46 47 48 48 48 48 49 50 51 52 53 55 56 57 57 54 50 51 53 53 52 52 51 49 49 50 50 50 48 46 44 44 45
12 11 13 17 22 28 35 41 44 46 47 49 50 51 52 51 52 53 54 54 55 56 57 59 57 52 51 53 53 53 53 52 50 49 50 51 51 50 48 44 42 44
17 15 15 17 18 21 27 34 40 43 45 46 47 49 52 54 54 55 55 55 56 56 57 60 59 54 51 53 53 53 53 52 51 50 51 52 52 52 50 46 42 43
24 23 21 20 21 21 23 26 31 36 40 43 45 46 48 52 55 56 55 55 56 58 58 59 60 56 52 53 53 54 54 53 52 51 51 53 53 53 52 49 45 44
28 28 27 25 25 25 25 25 27 30 33 38 44 48 49 49 51 53 55 56 57 58 59 59 59 57 54 53 54 54 55 54 53 52 52 53 54 53 52 51 48 45
27 28 29 28 27 28 28 27 27 29 31 34 40 46 51 51 49 47 50 53 56 57 58 58 57 56 54 54 54 55 55 54 53 52 53 54 54 54 53 52 50 48
26 27 28 28 27 27 28 28 28 28 30 32 35 40 45 50 51 49 47 49 51 54 55 56 55 54 54 54 55 55 55 54 52 52 54 55 55 55 54 53 52 51
Wind_Direction
218 219 220 221 223 225 224 222 220 219 220 221 222 223 224 225 225 226 227 228 228 228 227 227 226 225 225 226 228 231 232 233 234 235 236 238 240 241 241 242 242 243
219 220 220 220 221 223 223 223 221 221 222 224 226 227 226 226 227 227 229 229 229 228 228 229 228 226 225 226 228 230 232 233 234 236 236 238 240 241 242 242 243 243
219 220 221 220 220 221 222 223 223 222 224 225 227 229 228 227 228 229 229 230 230 230 229 229 229 228 227 227 229 231 232 232 234 235 237 238 239 241 243 243 243 243
220 221 222 221 220 220 221 223 223 223 224 226 227 230 230 229 228 229 230 230 230 231 231 231 230 230 230 230 231 233 233 233 233 235 237 238 239 241 243 244 243 244
222 221 222 222 222 221 221 222 224 224 224 226 227 229 231 231 230 229 230 229 230 230 231 231 232 232 231 232 233 235 235 235 233 233 236 238 239 241 243 244 244 244
224 223 223 223 223 223 222 222 224 225 225 226 227 229 231 232 232 231 231 231 230 230 230 231 232 233 233 233 234 236 237 238 236 233 234 237 238 240 242 244 244 245
226 225 224 224 225 225 224 224 224 226 227 228 229 231 233 234 234 233 233 233 233 232 232 231 231 232 233 233 235 236 238 239 238 235 234 236 238 239 241 243 244 245
227 227 226 225 226 227 227 226 226 227 228 229 230 232 234 235 235 235 235 236 236 235 234 233 233 233 233 233 235 236 238 239 239 237 235 235 237 238 239 241 244 244
228 227 227 226 226 226 227 228 228 228 229 230 232 234 235 236 236 236 236 237 238 237 236 235 234 234 234 234 235 237 238 238 238 238 237 237 236 236 237 240 243 244
229 227 226 225 226 227 227 228 228 229 229 230 233 235 236 236 236 235 236 238 239 239 238 236 236 236 236 236 237 239 240 240 239 239 240 239 239 237 236 238 241 243
233 230 227 225 226 228 229 229 230 231 231 232 233 235 236 237 236 235 236 238 239 239 239 238 237 237 238 239 239 240 241 242 241 241 242 242 242 240 237 237 240 243
236 234 230 228 228 229 230 231 232 232 233 234 236 237 237 237 236 236 236 237 238 239 240 240 239 238 239 241 241 241 242 243 243 243 243 244 244 242 239 236 239 243
237 239 237 233 231 232 233 233 233 234 234 236 238 238 237 237 237 237 237 238 239 240 241 241 240 239 240 242 243 243 243 243 243 243 243 244 244 243 241 238 238 241
236 241 242 237 235 235 235 235 236 236 237 238 238 238 238 238 238 238 238 238 239 240 242 242 241 240 241 242 244 244 244 244 243 242 242 243 243 243 242 241 239 240
240 244 243 238 235 235 235 236 237 238 239 240 239 239 239 239 238 238 238 239 239 240 242 242 241 241 242 244 244 244 245 244 242 242 242 242 242 242 243 242 241 240
248 247 242 236 233 235 237 239 240 240 241 241 240 240 240 238 238 237 238 238 239 240 241 241 241 243 245 246 246 246 246 245 243 242 241 241 241 242 243 243 243 241
256 249 242 236 236 239 242 243 243 243 242 241 241 241 241 239 237 236 237 238 240 240 240 241 243 245 247 247 246 247 246 245 244 242 241 240 240 242 244 244 244 243
262 255 248 245 246 248 248 247 247 245 244 242 241 240 241 239 237 237 238 238 239 239 240 241 243 245 247 247 247 247 246 245 245 243 241 240 240 241 243 245 246 244
256 255 255 256 257 256 254 253 250 247 246 245 243 242 240 238 237 238 238 238 239 239 239 241 242 244 246 247 247 248 246 245 244 244 243 242 241 241 242 245 246 244
256 259 261 261 261 260 258 256 253 251 250 248 247 245 241 238 237 237 237 238 239 239 239 240 241 243 245 246 247 248 246 244 244 244 244 244 243 243 243 245 246 245
265 275 276 271 267 263 259 255 252 251 250 248 247 246 243 241 240 238 237 238 239 238 238 239 241 243 245 246 247 247 246 244 243 243 243 244 244 244 244 245 246 247
261 269 280 281 277 271 265 260 255 251 249 247 246 245 245 243 241 239 238 238 238 237 237 238 241 243 244 246 247 247 245 243 242 242 243 243 244 244 244 243 245 248
261 264 273 281 279 274 270 267 263 259 256 252 250 248 246 242 239 238 238 238 237 236 236 237 239 242 245 246 247 246 244 242 241 241 241 242 243 243 244 243 243 246
263 263 268 278 280 275 271 270 269 266 262 257 254 252 250 246 242 239 238 239 238 236 236 236 239 242 245 245 246 246 244 242 241 241 240 241 241 242 243 243 242 245
261 260 265 275 278 274 272 273 274 272 268 260 256 254 253 252 249 244 240 239 239 238 237 237 239 242 244 244 245 246 245 243 242 240 239 239 239 239 240 241 241 243
258 259 264 272 275 273 270 270 273 275 273 267 261 258 257 256 255 252 248 244 242 240 238 237 239 241 243 244 245 245 245 244 241 239 239 238 238 237 238 239 240 241